"2009-08-22 00:00:00",1172449,2.292,115.2,3.128,0.147,20.59,110.193,25.39,26.35,22.02,0,111.3,13.09,26.23,77.2
"2009-08-22 00:00:30",1172450,2.345,116.1,3.644,0.115,20.6,110.1986,25.4,26.36,21.99,0,111.3,13.09,26.25,78.1
"2009-08-22 00:01:00",1172451,2.642,120.7,2.678,0.194,20.59,110.1986,25.4,26.38,21.92,0,111.3,13.09,26.25,82.7
"2009-08-22 00:01:30",1172452,3.1,120.1,1.993,0.199,20.61,110.1989,25.41,26.38,22.02,0,111.3,13.09,26.25,82.1
"2009-08-22 00:02:00",1172453,2.687,122.6,2.175,0.143,20.61,110.1989,25.41,26.39,21.93,0,111.3,13.09,26.25,84.6
"2009-08-22 00:02:30",1172454,3.142,120.4,3.144,0.107,20.64,110.1989,25.41,26.4,22.01,0,111.3,13.09,26.25,82.4
"2009-08-22 00:03:00",1172455,2.471,122.5,3.883,0.333,20.63,110.1986,25.4,26.4,22.04,0,111.3,13.09,26.25,84.5
"2009-08-22 00:03:30",1172456,2.54,126.9,3.105,0.311,20.62,110.1986,25.4,26.41,22.02,0,111.3,13.09,26.25,88.9
"2009-08-22 00:04:00",1172457,2.318,124.3,10.69,0.263,20.67,110.1989,25.41,26.42,22.02,0,111.3,13.09,26.25,86.3
"2009-08-22 00:04:30",1172458,2.112,110.8,5.941,0.258,20.67,110.1995,25.41,26.43,22.02,0,111.3,13.09,26.25,72.8
"2009-08-22 00:05:00",1172459,2.471,126.4,3.175,0.25,20.7,110.1989,25.41,26.42,22.1,0,111.3,13.09,26.25,88.4
"2009-08-22 00:05:30",1172460,3.033,139.7,4.474,0.166,20.78,110.1986,25.4,26.42,22.17,0,111.3,13.09,26.25,101.7
"2009-08-22 00:06:00",1172461,2.772,143.5,4.002,0.218,20.74,110.1989,25.41,26.42,22.12,0,111.3,13.09,26.25,105.5
"2009-08-22 00:06:30",1172462,2.393,132.8,4.434,0.193,20.76,110.1986,25.4,26.43,22.17,0,111.3,13.09,26.25,94.8
"2009-08-22 00:07:00",1172463,2.154,139.3,2.722,0.178,20.78,110.1995,25.41,26.44,22.18,0,111.3,13.09,26.25,101.3
"2009-08-22 00:07:30",1172464,2.413,132.1,3.101,0.111,20.71,110.1992,25.41,26.43,22.27,0,111.3,13.09,26.25,94.1
"2009-08-22 00:08:00",1172465,1.705,123.8,8.26,0.281,20.71,110.1989,25.41,26.45,22.21,0,111.3,13.09,26.25,85.8
"2009-08-22 00:08:30",1172466,1.327,125.5,11.03,0.18,20.6,110.1995,25.41,26.43,22.02,0,111.3,13.09,26.25,87.5
"2009-08-22 00:09:00",1172467,1.399,97.1,19.15,0.471,20.61,110.1813,25.36,26.42,22.1,0,111.3,13.09,26.20,59.1
"2009-08-22 00:09:30",1172468,1.122,130,19.13,0.414,20.59,110.1686,25.33,26.41,22.19,0,111.3,13.09,26.17,92.0
"2009-08-22 00:10:00",1172469,1.853,139.4,6.524,0.318,20.63,110.1507,25.28,26.39,22.27,0,111.3,13.09,26.12,101.4
"2009-08-22 00:10:30",1172470,2.959,113.6,9.26,0.38,20.64,110.1316,25.23,26.33,22.35,0,111.3,13.09,26.07,75.6
"2009-08-22 00:11:00",1172471,2.793,124.2,5.721,0.165,20.67,110.1322,25.23,26.3,22.38,0,111.3,13.09,26.07,86.2
"2009-08-22 00:11:30",1172472,2.703,124.9,2.181,0.168,20.62,110.1316,25.23,26.29,22.26,0,111.3,13.09,26.07,86.9
"2009-08-22 00:12:00",1172473,2.522,119.1,4.801,0.189,20.66,110.1316,25.23,26.29,22.19,0,111.3,13.09,26.07,81.1
"2009-08-22 00:12:30",1172474,2.799,116.1,3.597,0.273,20.69,110.1355,25.24,26.29,22.15,0,111.3,13.09,26.08,78.1
"2009-08-22 00:13:00",1172475,2.681,120.8,7.715,0.215,20.75,110.14,25.25,26.3,22.2,0,111.3,13.09,26.09,82.8
"2009-08-22 00:13:30",1172476,2.323,107.8,6.968,0.19,20.8,110.1459,25.27,26.29,22.19,0,111.3,13.09,26.11,69.8
"2009-08-22 00:14:00",1172477,2.519,98.5,7.764,0.263,20.83,110.1573,25.3,26.31,22.14,0,111.3,13.09,26.14,60.5
"2009-08-22 00:14:30",1172478,2.747,104.5,10.8,0.172,20.81,110.1656,25.32,26.31,22.14,0,111.3,13.09,26.16,66.5
"2009-08-22 00:15:00",1172479,1.863,108.2,5.583,0.179,20.75,110.1541,25.29,26.33,22.17,0,111.3,13.09,26.13,70.2
"2009-08-22 00:15:30",1172480,2.399,107.4,7.806,0.25,20.78,110.1363,25.24,26.31,22.16,0,111.3,13.09,26.08,69.4
"2009-08-22 00:16:00",1172481,3.23,124.6,3.314,0.222,20.76,110.1306,25.23,26.29,22.23,0,111.3,13.09,26.07,86.6
"2009-08-22 00:16:30",1172482,3.692,129.7,4.452,0.127,20.85,110.1151,25.19,26.25,22.27,0,111.3,13.09,26.03,91.7
"2009-08-22 00:17:00",1172483,3.334,125.7,2.112,0.266,20.9,110.1112,25.18,26.22,22.18,0,111.3,13.09,26.02,87.7
"2009-08-22 00:17:30",1172484,3.022,127.9,1.701,0.11,20.89,110.1207,25.2,26.21,22,0,111.3,13.09,26.04,89.9
"2009-08-22 00:18:00",1172485,2.925,130.9,1.624,0.12,20.92,110.1291,25.23,26.2,21.87,0,111.3,13.09,26.07,92.9
"2009-08-22 00:18:30",1172486,2.904,132.1,1.097,0.116,20.9,110.1316,25.23,26.22,21.88,0,111.3,13.09,26.07,94.1
"2009-08-22 00:19:00",1172487,2.765,127.3,3.723,0.144,20.86,110.1347,25.24,26.22,22,0,111.3,13.09,26.08,89.3
"2009-08-22 00:19:30",1172488,2.947,122.6,2.005,0.184,20.83,110.1328,25.24,26.23,22.18,0,111.3,13.09,26.08,84.6
"2009-08-22 00:20:00",1172489,2.494,126.9,3.822,0.22,20.9,110.1349,25.24,26.24,22.16,0,111.3,13.09,26.08,88.9
"2009-08-22 00:20:30",1172490,1.734,124.4,5.477,0.223,20.81,110.1394,25.25,26.27,22.08,0,111.3,13.09,26.09,86.4
"2009-08-22 00:21:00",1172491,1.867,115.1,6.731,0.16,20.82,110.1478,25.27,26.27,22.1,0,111.3,13.09,26.11,77.1
"2009-08-22 00:21:30",1172492,1.776,120,3.449,0.277,20.78,110.1498,25.28,26.27,22.16,0,111.3,13.09,26.12,82.0
"2009-08-22 00:22:00",1172493,1.946,125.6,8.18,0.142,20.73,110.1539,25.29,26.29,22.15,0,111.3,13.09,26.13,87.6
"2009-08-22 00:22:30",1172494,1.983,141.9,8.02,0.272,20.81,110.1696,25.33,26.3,21.95,0,111.3,13.09,26.17,103.9
"2009-08-22 00:23:00",1172495,1.865,150.4,5.606,0.217,20.77,110.1781,25.35,26.31,22.02,0,111.3,13.09,26.19,112.4
"2009-08-22 00:23:30",1172496,1.756,129.4,10.46,0.17,20.71,110.1765,25.35,26.3,22,0,111.3,13.09,26.19,91.4
"2009-08-22 00:24:00",1172497,1.671,118.4,3.22,0.243,20.73,110.1804,25.36,26.32,21.97,0,111.3,13.09,26.20,80.4
"2009-08-22 00:24:30",1172498,1.305,122.2,8.68,0.252,20.75,110.1819,25.36,26.34,21.97,0,111.3,13.09,26.20,84.2
"2009-08-22 00:25:00",1172499,1.389,145.4,17.03,0.246,20.72,110.1825,25.36,26.34,21.96,0,111.3,13.09,26.20,107.4
"2009-08-22 00:25:30",1172500,0.436,164.9,39.72,0.357,20.74,110.1829,25.36,26.35,21.93,0,111.3,13.09,26.20,126.9
"2009-08-22 00:26:00",1172501,0.675,115.2,11.66,0.142,20.62,110.185,25.37,26.36,21.93,0,111.3,13.09,26.21,77.2
"2009-08-22 00:26:30",1172502,1.385,114.9,5.713,0.29,20.57,110.1886,25.38,26.36,21.94,0,111.3,13.09,26.22,76.9
"2009-08-22 00:27:00",1172503,2.117,119.5,7.161,0.175,20.59,110.1953,25.4,26.37,21.88,0,111.3,13.09,26.24,81.5
"2009-08-22 00:27:30",1172504,1.828,132.4,6.79,0.092,20.66,110.2131,25.44,26.38,21.84,0,111.3,13.09,26.28,94.4
"2009-08-22 00:28:00",1172505,1.629,116.5,7.714,0.176,20.64,110.2162,25.45,26.39,21.8,0,111.3,13.09,26.29,78.5
"2009-08-22 00:28:30",1172506,1.154,113.2,11.56,0.173,20.61,110.2159,25.45,26.41,21.75,0,111.3,13.09,26.29,75.2
"2009-08-22 00:29:00",1172507,0.809,132.1,5.68,0.038,20.66,110.2162,25.45,26.42,21.72,0,111.3,13.09,26.29,94.1
"2009-08-22 00:29:30",1172508,0.881,148.5,3.951,0.106,20.66,110.2209,25.46,26.43,21.71,0,111.3,13.09,26.30,110.5
"2009-08-22 00:30:00",1172509,1.018,135,4.4,0.165,20.67,110.2255,25.47,26.44,21.68,0,111.3,13.09,26.31,97.0
"2009-08-22 00:30:30",1172510,0.931,120.5,14,0.133,20.65,110.2289,25.48,26.47,21.69,0,111.3,13.09,26.32,82.5
"2009-08-22 00:31:00",1172511,1.003,107.9,7.718,0.189,20.6,110.2461,25.53,26.47,21.67,0,111.3,13.09,26.37,69.9
"2009-08-22 00:31:30",1172512,1.496,117.4,12.63,0.258,20.62,110.2449,25.52,26.49,21.57,0,111.3,13.09,26.36,79.4
"2009-08-22 00:32:00",1172513,1.371,117,10.38,0.113,20.63,110.2449,25.52,26.5,21.52,0,111.3,13.09,26.36,79.0
"2009-08-22 00:32:30",1172514,1.419,122.3,13.26,0.251,20.65,110.2424,25.52,26.51,21.53,0,111.3,13.09,26.36,84.3
"2009-08-22 00:33:00",1172515,2.536,128.6,7.252,0.355,20.66,110.2469,25.53,26.53,21.52,0,111.3,13.09,26.37,90.6
"2009-08-22 00:33:30",1172516,2.349,124.5,3.027,0.13,20.76,110.2436,25.52,26.54,21.47,0,111.3,13.09,26.36,86.5
"2009-08-22 00:34:00",1172517,2.134,131.5,8.23,0.203,20.78,110.2424,25.52,26.53,21.51,0,111.3,13.09,26.36,93.5
"2009-08-22 00:34:30",1172518,1.659,101.2,9.99,0.249,20.86,110.2412,25.51,26.52,21.5,0,111.3,13.09,26.36,63.2
"2009-08-22 00:35:00",1172519,2.77,122.6,5.272,0.218,20.87,110.2421,25.52,26.53,21.49,0,111.3,13.09,26.36,84.6
"2009-08-22 00:35:30",1172520,2.766,116.8,8.76,0.167,20.86,110.2427,25.52,26.54,21.48,0,111.3,13.09,26.36,78.8
"2009-08-22 00:36:00",1172521,3.049,112.4,4.757,0.456,20.88,110.2484,25.53,26.54,21.43,0,111.3,13.09,26.37,74.4
"2009-08-22 00:36:30",1172522,3.562,115,5.137,0.423,20.91,110.254,25.55,26.54,21.41,0,111.3,13.09,26.39,77.0
"2009-08-22 00:37:00",1172523,3.151,130.4,3.89,0.171,20.93,110.2511,25.54,26.55,21.45,0,111.3,13.09,26.38,92.4
"2009-08-22 00:37:30",1172524,2.97,129.4,3.16,0.25,20.94,110.2486,25.53,26.54,21.45,0,111.3,13.09,26.37,91.4
"2009-08-22 00:38:00",1172525,2.385,129.2,4.184,0.184,21,110.2481,25.53,26.56,21.44,0,111.3,13.09,26.37,91.2
"2009-08-22 00:38:30",1172526,2.554,123.6,6.72,0.2,20.94,110.2495,25.54,26.55,21.46,0,111.3,13.09,26.38,85.6
"2009-08-22 00:39:00",1172527,2.89,117.4,2.832,0.146,20.92,110.2508,25.54,26.56,21.35,0,111.3,13.09,26.38,79.4
"2009-08-22 00:39:30",1172528,2.952,111.9,2.625,0.208,20.92,110.2554,25.55,26.56,21.34,0,111.3,13.09,26.39,73.9
"2009-08-22 00:40:00",1172529,2.986,105.2,5.144,0.177,20.95,110.2564,25.55,26.54,21.34,0,111.3,13.09,26.39,67.2
"2009-08-22 00:40:30",1172530,2.806,106,3.849,0.17,20.96,110.2573,25.56,26.54,21.35,0,111.3,13.09,26.40,68.0
"2009-08-22 00:41:00",1172531,3.842,109.1,5.025,0.456,21.05,110.246,25.53,26.54,21.4,0,111.3,13.09,26.37,71.1
"2009-08-22 00:41:30",1172532,3.446,111.4,6.123,0.234,21.02,110.235,25.5,26.54,21.4,0,111.3,13.09,26.34,73.4
"2009-08-22 00:42:00",1172533,3.519,106.3,3.174,0.16,21.06,110.2302,25.49,26.52,21.44,0,111.3,13.09,26.33,68.3
"2009-08-22 00:42:30",1172534,2.872,115.1,3.912,0.341,21.07,110.2261,25.48,26.5,21.43,0,111.3,13.09,26.32,77.1
"2009-08-22 00:43:00",1172535,2.722,118.6,4.857,0.314,21.02,110.2258,25.47,26.49,21.45,0,111.3,13.09,26.32,80.6
"2009-08-22 00:43:30",1172536,2.603,110.7,2.829,0.173,21.03,110.2191,25.46,26.47,21.48,0,111.3,13.09,26.30,72.7
"2009-08-22 00:44:00",1172537,2.155,110.3,10.68,0.313,21.05,110.2028,25.42,26.46,21.51,0,111.3,13.09,26.26,72.3
"2009-08-22 00:44:30",1172538,2.004,104.7,5.627,0.317,21.04,110.1958,25.4,26.45,21.61,0,111.3,13.09,26.24,66.7
"2009-08-22 00:45:00",1172539,2.206,110.4,2.304,0.15,21.06,110.1927,25.39,26.42,21.64,0,111.3,13.09,26.23,72.4
"2009-08-22 00:45:30",1172540,2.195,108,8.61,0.176,21.01,110.184,25.37,26.4,21.6,0,111.3,13.09,26.21,70.0
"2009-08-22 00:46:00",1172541,2.666,98.9,4.766,0.24,21.03,110.1667,25.32,26.38,21.79,0,111.3,13.09,26.16,60.9
"2009-08-22 00:46:30",1172542,2.531,96.3,3.955,0.198,21.02,110.1597,25.3,26.37,21.77,0,111.3,13.09,26.15,58.3
"2009-08-22 00:47:00",1172543,2.72,115,6.941,0.276,21.04,110.1625,25.31,26.35,21.79,0,111.3,13.09,26.15,77.0
"2009-08-22 00:47:30",1172544,2.157,129.3,3.876,0.223,20.98,110.1637,25.32,26.32,21.9,0,111.3,13.09,26.16,91.3
"2009-08-22 00:48:00",1172545,2.186,133.9,2.145,0.194,21.01,110.1634,25.31,26.31,21.9,0,111.3,13.09,26.15,95.9
"2009-08-22 00:48:30",1172546,2.122,139.3,4.918,0.194,21,110.149,25.28,26.29,21.91,0,111.3,13.09,26.12,101.3
"2009-08-22 00:49:00",1172547,1.92,141.9,3.105,0.144,21.01,110.1352,25.24,26.28,21.99,0,111.3,13.09,26.08,103.9
"2009-08-22 00:49:30",1172548,2.11,133.7,6.905,0.163,21.02,110.1325,25.24,26.25,22.02,0,111.3,13.1,26.07,95.7
"2009-08-22 00:50:00",1172549,2.504,120.9,2.202,0.098,21.07,110.1325,25.24,26.24,21.89,0,111.3,13.1,26.07,82.9
"2009-08-22 00:50:30",1172550,2.828,116,5.502,0.119,21.06,110.1331,25.24,26.24,21.86,0,111.3,13.1,26.08,78.0
"2009-08-22 00:51:00",1172551,2.53,127.7,2.314,0.355,21.01,110.1344,25.24,26.23,21.89,0,111.3,13.1,26.08,89.7
"2009-08-22 00:51:30",1172552,2.46,121.2,7.575,0.197,21.03,110.1344,25.24,26.23,21.84,0,111.3,13.1,26.08,83.2
"2009-08-22 00:52:00",1172553,2.369,119.1,6.362,0.208,21.03,110.1347,25.24,26.21,21.86,0,111.3,13.1,26.08,81.1
"2009-08-22 00:52:30",1172554,2.978,114.3,2.707,0.057,21.05,110.1347,25.24,26.21,21.82,0,111.3,13.1,26.08,76.3
"2009-08-22 00:53:00",1172555,3.088,112.6,2.255,0.099,21.07,110.1347,25.24,26.23,21.84,0,111.3,13.1,26.08,74.6
"2009-08-22 00:53:30",1172556,2.975,109.3,2.292,0.085,21.05,110.1347,25.24,26.22,21.84,0,111.3,13.1,26.08,71.3
"2009-08-22 00:54:00",1172557,2.646,111.1,2.19,0.121,21.05,110.1338,25.24,26.2,21.84,0,111.3,13.1,26.08,73.1
"2009-08-22 00:54:30",1172558,2.31,109.2,3.711,0.117,21.08,110.1302,25.23,26.22,21.88,0,111.3,13.1,26.07,71.2
"2009-08-22 00:55:00",1172559,2.446,111.5,3.396,0.266,21.06,110.1246,25.21,26.21,21.88,0,111.3,13.1,26.05,73.5
"2009-08-22 00:55:30",1172560,2.372,113.1,5.731,0.388,21.06,110.1159,25.19,26.22,21.9,0,111.3,13.1,26.03,75.1
"2009-08-22 00:56:00",1172561,2.884,126,3.89,0.173,21.08,110.1119,25.18,26.22,21.92,0,111.3,13.1,26.02,88.0
"2009-08-22 00:56:30",1172562,2.74,125.3,3.973,0.122,21.11,110.1091,25.17,26.21,21.93,0,111.3,13.1,26.01,87.3
"2009-08-22 00:57:00",1172563,2.323,123.6,4.668,0.156,21.13,110.1069,25.17,26.21,21.92,0,111.3,13.1,26.01,85.6
"2009-08-22 00:57:30",1172564,2.917,126.7,2.954,0.175,21.13,110.1061,25.17,26.19,21.99,0,111.3,13.1,26.01,88.7
"2009-08-22 00:58:00",1172565,2.646,123.2,8.28,0.176,21.16,110.101,25.15,26.19,22.08,0,111.3,13.1,25.99,85.2
"2009-08-22 00:58:30",1172566,1.903,97,10.13,0.205,21.12,110.0859,25.12,26.18,22.1,0,111.3,13.1,25.95,59.0
"2009-08-22 00:59:00",1172567,2.426,105.5,5.362,0.33,21.12,110.0673,25.07,26.16,22.11,0,111.3,13.09,25.91,67.5
"2009-08-22 00:59:30",1172568,3.058,111.8,3.459,0.176,21.15,110.067,25.07,26.12,22.14,0,111.3,13.09,25.91,73.8
"2009-08-22 01:00:00",1172569,3.242,106.5,3.5,0.162,21.12,110.0648,25.06,26.08,22.04,0,111.3,13.09,25.90,68.5
"2009-08-22 01:00:30",1172570,3.01,98.7,3.059,0.149,21.16,110.0606,25.05,26.08,22.06,0,111.2,13.09,25.89,60.7
"2009-08-22 01:01:00",1172571,2.902,100.8,4.837,0.146,21.15,110.0483,25.02,26.07,21.99,0,111.2,13.09,25.86,62.8
"2009-08-22 01:01:30",1172572,2.991,102.2,7.412,0.178,21.18,110.0424,25,26.04,21.98,0,111.2,13.09,25.84,64.2
"2009-08-22 01:02:00",1172573,2.443,113.4,3.285,0.175,21.13,110.039,24.99,26.05,21.87,0,111.2,13.09,25.83,75.4
"2009-08-22 01:02:30",1172574,2.047,103.1,5.416,0.119,21.13,110.0342,24.98,26.05,21.81,0,111.2,13.09,25.82,65.1
"2009-08-22 01:03:00",1172575,1.796,106,3.761,0.149,21.12,110.034,24.98,26.04,21.81,0,111.2,13.09,25.82,68.0
"2009-08-22 01:03:30",1172576,1.448,113.1,4.573,0.133,21.12,110.0337,24.98,26.03,21.92,0,111.2,13.09,25.82,75.1
"2009-08-22 01:04:00",1172577,1.953,107.5,4.663,0.132,21.12,110.0358,24.99,26.04,21.97,0,111.2,13.1,25.83,69.5
"2009-08-22 01:04:30",1172578,2.188,119.6,11.46,0.164,21.13,110.0386,24.99,26.03,22.02,0,111.2,13.1,25.83,81.6
"2009-08-22 01:05:00",1172579,2.187,118.6,11.3,0.203,21.15,110.0365,24.99,26.02,22.04,0,111.2,13.1,25.83,80.6
"2009-08-22 01:05:30",1172580,2.396,110.7,4.175,0.12,21.19,110.0404,25,26.02,22.02,0,111.2,13.1,25.84,72.7
"2009-08-22 01:06:00",1172581,2.519,104.1,3.914,0.075,21.16,110.039,24.99,26.02,21.9,0,111.2,13.1,25.83,66.1
"2009-08-22 01:06:30",1172582,2.676,99.8,3.243,0.13,21.14,110.0358,24.99,26.01,21.78,0,111.2,13.1,25.83,61.8
"2009-08-22 01:07:00",1172583,2.498,103.8,6.018,0.146,21.19,110.0301,24.97,26,21.82,0,111.2,13.1,25.81,65.8
"2009-08-22 01:07:30",1172584,2.154,111.9,4.271,0.123,21.17,110.0237,24.96,25.98,21.91,0,111.2,13.1,25.79,73.9
"2009-08-22 01:08:00",1172585,2.293,112.7,3.96,0.141,21.19,110.0232,24.95,25.98,21.94,0,111.2,13.1,25.79,74.7
"2009-08-22 01:08:30",1172586,2.378,110.6,3.3,0.159,21.24,110.0259,24.96,25.98,21.96,0,111.2,13.1,25.80,72.6
"2009-08-22 01:09:00",1172587,2.274,107.7,2.754,0.178,21.23,110.0269,24.96,25.97,21.97,0,111.2,13.1,25.80,69.7
"2009-08-22 01:09:30",1172588,2.134,109.9,1.619,0.063,21.22,110.0275,24.97,25.97,21.98,0,111.2,13.1,25.80,71.9
"2009-08-22 01:10:00",1172589,2.011,109.3,1.554,0.068,21.21,110.0225,24.95,25.95,21.94,0,111.2,13.1,25.79,71.3
"2009-08-22 01:10:30",1172590,1.764,111.8,2.576,0.157,21.23,110.0116,24.92,25.94,21.99,0,111.2,13.1,25.76,73.8
"2009-08-22 01:11:00",1172591,1.522,117.9,4.555,0.096,21.21,110.004,24.9,25.95,22.02,0,111.2,13.1,25.74,79.9
"2009-08-22 01:11:30",1172592,1.386,110.7,2.826,0.068,21.19,110.0004,24.9,25.93,22.05,0,111.2,13.1,25.73,72.7
"2009-08-22 01:12:00",1172593,1.535,123,5.076,0.083,21.22,109.9977,24.89,25.94,22.09,0,111.2,13.1,25.73,85.0
"2009-08-22 01:12:30",1172594,1.621,121.1,3.614,0.147,21.21,110,24.89,25.91,22.12,0,111.2,13.1,25.73,83.1
"2009-08-22 01:13:00",1172595,1.671,117.8,6.428,0.093,21.23,110.0015,24.9,25.92,22.12,0,111.2,13.1,25.74,79.8
"2009-08-22 01:13:30",1172596,1.707,132.2,3.575,0.192,21.26,110.0015,24.9,25.92,22.16,0,111.2,13.1,25.74,94.2
"2009-08-22 01:14:00",1172597,1.826,133.4,3.623,0.145,21.31,110.0024,24.9,25.9,22.21,0,111.2,13.1,25.74,95.4
"2009-08-22 01:14:30",1172598,1.842,121.7,2.975,0.077,21.23,110.0031,24.9,25.9,22.15,0,111.2,13.11,25.74,83.7
"2009-08-22 01:15:00",1172599,1.841,119.8,4.036,0.121,21.22,110.0031,24.9,25.9,22.07,0,111.2,13.11,25.74,81.8
"2009-08-22 01:15:30",1172600,2.222,110.7,3.627,0.085,21.21,110.0028,24.9,25.89,21.93,0,111.2,13.1,25.74,72.7
"2009-08-22 01:16:00",1172601,2.079,106.1,2.507,0.106,21.21,109.9989,24.89,25.89,21.86,0,111.2,13.11,25.73,68.1
"2009-08-22 01:16:30",1172602,2.348,106.2,3.959,0.058,21.2,109.9961,24.88,25.88,21.8,0,111.2,13.1,25.72,68.2
"2009-08-22 01:17:00",1172603,2.214,111.7,3.201,0.139,21.24,109.9893,24.87,25.88,21.77,0,111.2,13.1,25.71,73.7
"2009-08-22 01:17:30",1172604,2.289,120.6,5.63,0.143,21.31,109.984,24.85,25.87,21.84,0,111.2,13.1,25.69,82.6
"2009-08-22 01:18:00",1172605,2.316,109.9,3.845,0.149,21.29,109.9747,24.83,25.87,21.84,0,111.2,13.1,25.67,71.9
"2009-08-22 01:18:30",1172606,2.694,118.6,2.859,0.195,21.3,109.9705,24.82,25.86,21.79,0,111.2,13.1,25.66,80.6
"2009-08-22 01:19:00",1172607,2.728,119.1,2.01,0.104,21.29,109.9697,24.82,25.86,21.81,0,111.2,13.1,25.66,81.1
"2009-08-22 01:19:30",1172608,2.586,124,1.949,0.067,21.33,109.9697,24.82,25.85,21.82,0,111.2,13.1,25.66,86.0
"2009-08-22 01:20:00",1172609,2.338,128.3,1.685,0.113,21.38,109.9697,24.82,25.84,21.88,0,111.2,13.1,25.66,90.3
"2009-08-22 01:20:30",1172610,2.261,131.3,2.001,0.141,21.39,109.9688,24.81,25.84,21.92,0,111.2,13.1,25.65,93.3
"2009-08-22 01:21:00",1172611,2.419,135.3,5.982,0.19,21.37,109.961,24.79,25.82,21.93,0,111.2,13.1,25.63,97.3
"2009-08-22 01:21:30",1172612,2.272,126.8,3.521,0.137,21.29,109.9472,24.76,25.82,21.86,0,111.2,13.1,25.60,88.8
"2009-08-22 01:22:00",1172613,1.992,127.3,2.604,0.239,21.25,109.9433,24.75,25.81,22.05,0,111.2,13.11,25.59,89.3
"2009-08-22 01:22:30",1172614,2.188,121.5,5.833,0.353,21.19,109.9369,24.73,25.77,22.46,0,111.2,13.11,25.57,83.5
"2009-08-22 01:23:00",1172615,2.581,131,2.022,0.122,21.34,109.9382,24.74,25.78,22.39,0,111.2,13.11,25.57,93.0
"2009-08-22 01:23:30",1172616,2.678,128.2,5.035,0.207,21.21,109.9367,24.73,25.78,22.47,0,111.2,13.11,25.57,90.2
"2009-08-22 01:24:00",1172617,2.594,107.7,5.067,0.319,21.2,109.9188,24.69,25.76,23.27,0,111.2,13.11,25.52,69.7
"2009-08-22 01:24:30",1172618,2.654,122.7,4.349,0.387,21.19,109.9103,24.66,25.75,23.5,0,111.2,13.12,25.50,84.7
"2009-08-22 01:25:00",1172619,2.885,129.2,5.839,0.369,21.39,109.9085,24.66,25.73,22.95,0,111.2,13.12,25.50,91.2
"2009-08-22 01:25:30",1172620,2.776,126.9,4.39,0.253,21.45,109.9094,24.66,25.71,22.09,0,111.2,13.12,25.50,88.9
"2009-08-22 01:26:00",1172621,2.186,110.5,11.41,0.283,21.3,109.8912,24.61,25.67,22.92,0,111.2,13.12,25.45,72.5
"2009-08-22 01:26:30",1172622,2.284,127.5,2.342,0.075,21.42,109.8852,24.6,25.67,22.5,0,111.2,13.12,25.44,89.5
"2009-08-22 01:27:00",1172623,2.333,124.6,3.228,0.125,21.45,109.8881,24.61,25.66,22.28,0,111.2,13.12,25.44,86.6
"2009-08-22 01:27:30",1172624,2.474,123.4,3.9,0.079,21.51,109.8771,24.58,25.63,22.1,0,111.2,13.12,25.42,85.4
"2009-08-22 01:28:00",1172625,2.549,123.6,1.947,0.055,21.5,109.866,24.55,25.62,22.08,0,111.2,13.12,25.39,85.6
"2009-08-22 01:28:30",1172626,2.568,122.7,1.455,0.063,21.53,109.8627,24.54,25.6,22.02,0,111.2,13.12,25.38,84.7
"2009-08-22 01:29:00",1172627,2.52,121.9,0.89,0.059,21.49,109.8593,24.53,25.57,22,0,111.1,13.12,25.37,83.9
"2009-08-22 01:29:30",1172628,2.376,125.6,0.771,0.085,21.52,109.8402,24.48,25.56,22.04,0,111.1,13.12,25.32,87.6
"2009-08-22 01:30:00",1172629,2.369,127.5,1.826,0.081,21.43,109.8321,24.46,25.54,22.13,0,111.1,13.12,25.30,89.5
"2009-08-22 01:30:30",1172630,2.356,125.7,2.754,0.161,21.35,109.8296,24.46,25.53,22.97,0,111.1,13.12,25.29,87.7
"2009-08-22 01:31:00",1172631,2.222,126.3,1.241,0.131,21.54,109.8272,24.45,25.5,22.37,0,111.1,13.12,25.29,88.3
"2009-08-22 01:31:30",1172632,2.355,121.9,3.062,0.045,21.57,109.8146,24.42,25.49,22.21,0,111.1,13.12,25.26,83.9
"2009-08-22 01:32:00",1172633,2.318,122,1.78,0.058,21.54,109.8009,24.38,25.46,22.17,0,111.1,13.12,25.22,84.0
"2009-08-22 01:32:30",1172634,2.232,121.1,2.035,0.062,21.55,109.8027,24.39,25.46,22.19,0,111.1,13.12,25.22,83.1
"2009-08-22 01:33:00",1172635,2.294,122.3,2.13,0.066,21.56,109.799,24.38,25.43,22.2,0,111.1,13.12,25.22,84.3
"2009-08-22 01:33:30",1172636,2.341,117.4,1.819,0.057,21.61,109.7807,24.33,25.41,22.18,0,111.1,13.12,25.17,79.4
"2009-08-22 01:34:00",1172637,2.411,122.6,1.392,0.061,21.61,109.7714,24.31,25.4,22.16,0,111.1,13.12,25.14,84.6
"2009-08-22 01:34:30",1172638,2.436,121.5,2.753,0.061,21.6,109.7709,24.31,25.37,22.19,0,111.1,13.12,25.14,83.5
"2009-08-22 01:35:00",1172639,2.531,121.3,2.758,0.1,21.59,109.7686,24.3,25.35,22.21,0,111.1,13.12,25.14,83.3
"2009-08-22 01:35:30",1172640,2.656,119.8,1.449,0.053,21.61,109.7554,24.27,25.35,22.25,0,111.1,13.12,25.10,81.8
"2009-08-22 01:36:00",1172641,2.506,122.9,1.386,0.099,21.69,109.7431,24.23,25.33,22.27,0,111.1,13.12,25.07,84.9
"2009-08-22 01:36:30",1172642,2.508,122.1,2.23,0.08,21.66,109.7372,24.22,25.32,22.28,0,111.1,13.12,25.06,84.1
"2009-08-22 01:37:00",1172643,2.644,123.8,1.097,0.076,21.67,109.7358,24.22,25.28,22.31,0,111.1,13.12,25.05,85.8
"2009-08-22 01:37:30",1172644,2.621,124.7,1.038,0.063,21.66,109.7232,24.18,25.26,22.32,0,111.1,13.12,25.02,86.7
"2009-08-22 01:38:00",1172645,2.511,123.9,2.559,0.041,21.67,109.7097,24.15,25.26,22.36,0,111.1,13.12,24.98,85.9
"2009-08-22 01:38:30",1172646,2.513,123.5,3.678,0.073,21.65,109.7035,24.13,25.25,22.37,0,111.1,13.12,24.97,85.5
"2009-08-22 01:39:00",1172647,2.378,129.3,1.416,0.066,21.67,109.7038,24.13,25.22,22.38,0,111.1,13.12,24.97,91.3
"2009-08-22 01:39:30",1172648,2.611,127.9,6.677,0.353,21.66,109.6975,24.12,25.21,22.44,0,111.1,13.12,24.95,89.9
"2009-08-22 01:40:00",1172649,2.505,116.7,3.71,0.301,21.64,109.6829,24.08,25.18,22.69,0,111.1,13.13,24.92,78.7
"2009-08-22 01:40:30",1172650,2.397,122.7,2.503,0.196,21.69,109.6806,24.07,25.18,22.67,0,111.1,13.13,24.91,84.7
"2009-08-22 01:41:00",1172651,2.678,123.8,2.298,0.06,21.65,109.6847,24.08,25.15,22.5,0,111.1,13.13,24.92,85.8
"2009-08-22 01:41:30",1172652,2.706,130.1,1.234,0.044,21.72,109.6712,24.05,25.14,22.53,0,111.1,13.13,24.89,92.1
"2009-08-22 01:42:00",1172653,2.672,129.8,2.212,0.059,21.72,109.6598,24.02,25.1,22.55,0,111.1,13.13,24.86,91.8
"2009-08-22 01:42:30",1172654,2.678,129.7,1.226,0.052,21.74,109.6617,24.03,25.09,22.55,0,111.1,13.13,24.86,91.7
"2009-08-22 01:43:00",1172655,2.499,130.6,1.081,0.093,21.69,109.6529,24,25.08,22.58,0,111.1,13.13,24.84,92.6
"2009-08-22 01:43:30",1172656,2.647,131.4,1.143,0.072,21.74,109.6391,23.97,25.05,22.64,0,111.1,13.14,24.80,93.4
"2009-08-22 01:44:00",1172657,2.587,131.9,0.868,0.062,21.71,109.6318,23.95,25.04,22.6,0,111.1,13.14,24.78,93.9
"2009-08-22 01:44:30",1172658,2.59,130,0.806,0.038,21.73,109.6317,23.95,25,22.58,0,111.1,13.14,24.78,92.0
"2009-08-22 01:45:00",1172659,2.51,131,1.629,0.047,21.7,109.6219,23.92,25,22.62,0,111.1,13.14,24.76,93.0
"2009-08-22 01:45:30",1172660,2.422,130.2,3.379,0.076,21.72,109.6107,23.89,24.97,22.7,0,111.1,13.14,24.73,92.2
"2009-08-22 01:46:00",1172661,2.251,128,1.356,0.063,21.73,109.6056,23.88,24.96,22.71,0,111.1,13.14,24.72,90.0
"2009-08-22 01:46:30",1172662,2.303,128.8,2.146,0.058,21.7,109.6051,23.88,24.94,22.75,0,111.1,13.14,24.72,90.8
"2009-08-22 01:47:00",1172663,2.419,130.1,1.759,0.067,21.72,109.6003,23.87,24.93,22.81,0,111.1,13.14,24.70,92.1
"2009-08-22 01:47:30",1172664,2.374,129.3,1.347,0.066,21.72,109.5829,23.82,24.91,22.84,0,111.1,13.14,24.66,91.3
"2009-08-22 01:48:00",1172665,2.365,127.3,1.541,0.051,21.73,109.5731,23.8,24.88,22.85,0,111.1,13.14,24.63,89.3